Time,TemperatureF,DewpointF,PressureIn,WindDirection,WindDirectionDegrees,WindSpeedMPH,WindSpeedGustMPH,Humidity,HourlyPrecipIn,Conditions,Clouds,dailyrainin,SoftwareType,DateUTC
2013-06-24 00:00:00,66.8,63.8,30.17,West,260,0.0,0.0,90,0.00,,,0.00,Wunderground v.1.15,2013-06-24 04:00:00,
2013-06-24 00:05:00,66.8,63.8,30.17,West,260,0.0,0.0,90,0.00,,,0.00,Wunderground v.1.15,2013-06-24 04:05:00,
2013-06-24 00:10:00,66.8,63.8,30.17,West,260,0.0,0.0,90,0.00,,,0.00,Wunderground v.1.15,2013-06-24 04:10:00,
2013-06-24 00:15:00,66.7,64.0,30.17,West,260,0.0,0.0,91,0.00,,,0.00,Wunderground v.1.15,2013-06-24 04:15:00,
2013-06-24 00:20:00,66.7,63.7,30.17,West,260,0.0,0.0,90,0.00,,,0.00,Wunderground v.1.15,2013-06-24 04:20:00,
2013-06-24 00:25:00,66.7,64.0,30.17,West,260,0.0,0.0,91,0.00,,,0.00,Wunderground v.1.15,2013-06-24 04:25:00,
2013-06-24 00:30:00,66.7,64.0,30.17,West,260,0.0,0.0,91,0.00,,,0.00,Wunderground v.1.15,2013-06-24 04:30:00,
2013-06-24 00:40:00,66.7,64.0,30.17,West,260,0.0,0.0,91,0.00,,,0.00,Wunderground v.1.15,2013-06-24 04:40:00,
2013-06-24 00:45:00,66.7,64.0,30.17,West,260,0.0,0.0,91,0.00,,,0.00,Wunderground v.1.15,2013-06-24 04:45:00,
2013-06-24 00:55:00,66.5,63.8,30.17,West,260,0.0,0.0,91,0.00,,,0.00,Wunderground v.1.15,2013-06-24 04:55:00,
2013-06-24 01:05:00,66.5,63.8,30.17,West,260,0.0,0.0,91,0.00,,,0.00,Wunderground v.1.15,2013-06-24 05:05:00,
2013-06-24 01:10:00,66.4,63.7,30.17,West,260,0.0,0.0,91,0.00,,,0.00,Wunderground v.1.15,2013-06-24 05:10:00,
2013-06-24 01:15:00,66.4,63.7,30.17,West,260,0.0,0.0,91,0.00,,,0.00,Wunderground v.1.15,2013-06-24 05:15:00,
2013-06-24 01:25:00,66.3,63.6,30.17,West,260,0.0,0.0,91,0.00,,,0.00,Wunderground v.1.15,2013-06-24 05:25:00,
2013-06-24 01:30:00,66.3,63.6,30.17,West,260,0.0,0.0,91,0.00,,,0.00,Wunderground v.1.15,2013-06-24 05:30:00,
2013-06-24 01:35:00,66.2,63.5,30.17,West,260,0.0,0.0,91,0.00,,,0.00,Wunderground v.1.15,2013-06-24 05:35:00,
2013-06-24 01:40:00,66.1,63.4,30.17,West,260,0.0,0.0,91,0.00,,,0.00,Wunderground v.1.15,2013-06-24 05:40:00,
2013-06-24 01:50:00,65.9,63.2,30.17,West,260,0.0,0.0,91,0.00,,,0.00,Wunderground v.1.15,2013-06-24 05:50:00,
2013-06-24 01:55:00,65.7,63.0,30.16,West,260,0.0,0.0,91,0.00,,,0.00,Wunderground v.1.15,2013-06-24 05:55:00,
2013-06-24 02:00:00,65.6,62.9,30.16,West,260,0.0,0.0,91,0.00,,,0.00,Wunderground v.1.15,2013-06-24 06:00:00,
2013-06-24 02:05:00,65.4,62.7,30.16,West,260,0.0,0.0,91,0.00,,,0.00,Wunderground v.1.15,2013-06-24 06:05:00,
2013-06-24 02:10:00,65.2,62.5,30.16,West,260,0.0,0.0,91,0.00,,,0.00,Wunderground v.1.15,2013-06-24 06:10:00,
2013-06-24 02:15:00,65.0,62.3,30.16,West,260,0.0,0.0,91,0.00,,,0.00,Wunderground v.1.15,2013-06-24 06:15:00,
2013-06-24 02:25:00,64.8,62.1,30.16,West,260,0.0,0.0,91,0.00,,,0.00,Wunderground v.1.15,2013-06-24 06:25:00,
2013-06-24 02:30:00,64.6,61.9,30.16,West,260,0.0,0.0,91,0.00,,,0.00,Wunderground v.1.15,2013-06-24 06:30:00,
2013-06-24 02:40:00,64.3,61.9,30.16,West,260,0.0,0.0,92,0.00,,,0.00,Wunderground v.1.15,2013-06-24 06:40:00,
2013-06-24 02:45:00,64.2,61.8,30.16,West,260,0.0,0.0,92,0.00,,,0.00,Wunderground v.1.15,2013-06-24 06:45:00,
2013-06-24 02:50:00,64.0,61.6,30.16,West,260,0.0,0.0,92,0.00,,,0.00,Wunderground v.1.15,2013-06-24 06:50:00,
2013-06-24 02:55:00,64.0,61.6,30.16,West,260,0.0,0.0,92,0.00,,,0.00,Wunderground v.1.15,2013-06-24 06:55:00,
2013-06-24 03:00:00,63.8,61.4,30.16,West,260,0.0,0.0,92,0.00,,,0.00,Wunderground v.1.15,2013-06-24 07:00:00,
2013-06-24 03:10:00,63.6,61.2,30.16,West,260,0.0,0.0,92,0.00,,,0.00,Wunderground v.1.15,2013-06-24 07:10:00,
2013-06-24 03:15:00,63.5,61.1,30.16,West,260,0.0,0.0,92,0.00,,,0.00,Wunderground v.1.15,2013-06-24 07:15:00,
2013-06-24 03:25:00,63.3,61.2,30.16,West,260,0.0,0.0,93,0.00,,,0.00,Wunderground v.1.15,2013-06-24 07:25:00,
2013-06-24 03:30:00,63.2,61.1,30.16,West,260,0.0,0.0,93,0.00,,,0.00,Wunderground v.1.15,2013-06-24 07:30:00,
2013-06-24 03:40:00,63.0,60.9,30.16,West,260,0.0,0.0,93,0.00,,,0.00,Wunderground v.1.15,2013-06-24 07:40:00,
2013-06-24 03:50:00,62.9,60.8,30.17,West,260,0.0,0.0,93,0.00,,,0.00,Wunderground v.1.15,2013-06-24 07:50:00,
2013-06-24 03:55:00,62.8,60.7,30.16,West,260,0.0,0.0,93,0.00,,,0.00,Wunderground v.1.15,2013-06-24 07:55:00,
2013-06-24 04:00:00,62.7,60.6,30.16,West,260,0.0,0.0,93,0.00,,,0.00,Wunderground v.1.15,2013-06-24 08:00:00,
2013-06-24 04:10:00,62.7,60.6,30.16,West,260,0.0,0.0,93,0.00,,,0.00,Wunderground v.1.15,2013-06-24 08:10:00,
2013-06-24 04:20:00,62.7,60.6,30.16,West,260,0.0,0.0,93,0.00,,,0.00,Wunderground v.1.15,2013-06-24 08:20:00,
2013-06-24 04:25:00,62.7,60.6,30.16,West,260,0.0,0.0,93,0.00,,,0.00,Wunderground v.1.15,2013-06-24 08:25:00,
2013-06-24 04:30:00,62.7,60.6,30.16,West,260,0.0,0.0,93,0.00,,,0.00,Wunderground v.1.15,2013-06-24 08:30:00,
2013-06-24 04:40:00,62.8,61.0,30.16,West,260,0.0,0.0,94,0.00,,,0.00,Wunderground v.1.15,2013-06-24 08:40:00,
2013-06-24 04:50:00,62.7,60.9,30.16,West,260,0.0,0.0,94,0.00,,,0.00,Wunderground v.1.15,2013-06-24 08:50:00,
2013-06-24 04:55:00,62.8,61.0,30.16,West,260,0.0,0.0,94,0.00,,,0.00,Wunderground v.1.15,2013-06-24 08:55:00,
2013-06-24 05:00:00,62.7,60.9,30.16,West,260,0.0,0.0,94,0.00,,,0.00,Wunderground v.1.15,2013-06-24 09:00:00,
2013-06-24 05:10:00,62.6,60.8,30.16,West,260,0.0,0.0,94,0.00,,,0.00,Wunderground v.1.15,2013-06-24 09:10:00,
2013-06-24 05:15:00,62.5,60.7,30.16,West,260,0.0,0.0,94,0.00,,,0.00,Wunderground v.1.15,2013-06-24 09:15:00,
2013-06-24 05:25:00,62.4,60.7,30.16,West,260,0.0,0.0,94,0.00,,,0.00,Wunderground v.1.15,2013-06-24 09:25:00,
2013-06-24 05:30:00,62.4,60.7,30.16,West,260,0.0,0.0,94,0.00,,,0.00,Wunderground v.1.15,2013-06-24 09:30:00,
2013-06-24 05:35:00,62.3,60.6,30.17,West,260,0.0,0.0,94,0.00,,,0.00,Wunderground v.1.15,2013-06-24 09:35:00,
2013-06-24 05:40:00,62.3,60.6,30.16,West,260,0.0,0.0,94,0.00,,,0.00,Wunderground v.1.15,2013-06-24 09:40:00,
2013-06-24 05:45:00,62.2,60.5,30.16,West,260,0.0,0.0,94,0.00,,,0.00,Wunderground v.1.15,2013-06-24 09:45:00,
2013-06-24 05:55:00,62.2,60.5,30.17,West,260,0.0,0.0,94,0.00,,,0.00,Wunderground v.1.15,2013-06-24 09:55:00,
2013-06-24 06:05:00,62.1,60.4,30.17,West,260,0.0,0.0,94,0.00,,,0.00,Wunderground v.1.15,2013-06-24 10:05:00,
2013-06-24 06:10:00,62.1,60.4,30.17,West,260,0.0,0.0,94,0.00,,,0.00,Wunderground v.1.15,2013-06-24 10:10:00,
2013-06-24 06:20:00,62.0,60.3,30.17,West,260,0.0,0.0,94,0.00,,,0.00,Wunderground v.1.15,2013-06-24 10:20:00,
2013-06-24 06:25:00,61.9,60.2,30.17,West,260,0.0,0.0,94,0.00,,,0.00,Wunderground v.1.15,2013-06-24 10:25:00,
2013-06-24 06:40:00,61.9,60.2,30.17,West,260,0.0,0.0,94,0.00,,,0.00,Wunderground v.1.15,2013-06-24 10:40:00,
2013-06-24 06:45:00,61.9,60.2,30.17,West,260,0.0,0.0,94,0.00,,,0.00,Wunderground v.1.15,2013-06-24 10:45:00,
2013-06-24 06:55:00,62.0,60.3,30.18,West,260,0.0,0.0,94,0.00,,,0.00,Wunderground v.1.15,2013-06-24 10:55:00,
2013-06-24 07:00:00,62.1,60.4,30.17,West,260,0.0,0.0,94,0.00,,,0.00,Wunderground v.1.15,2013-06-24 11:00:00,
2013-06-24 07:10:00,62.3,60.6,30.17,West,260,0.0,0.0,94,0.00,,,0.00,Wunderground v.1.15,2013-06-24 11:10:00,
2013-06-24 07:15:00,62.4,60.7,30.18,West,260,0.0,0.0,94,0.00,,,0.00,Wunderground v.1.15,2013-06-24 11:15:00,
2013-06-24 07:25:00,62.8,61.0,30.18,West,260,0.0,0.0,94,0.00,,,0.00,Wunderground v.1.15,2013-06-24 11:25:00,
2013-06-24 07:40:00,64.0,62.5,30.18,ENE,67,0.0,0.0,95,0.00,,,0.00,Wunderground v.1.15,2013-06-24 11:40:00,
2013-06-24 07:45:00,64.4,62.9,30.18,ENE,67,0.0,0.0,95,0.00,,,0.00,Wunderground v.1.15,2013-06-24 11:45:00,
2013-06-24 07:50:00,64.6,63.1,30.18,ENE,68,0.0,0.0,95,0.00,,,0.00,Wunderground v.1.15,2013-06-24 11:50:00,
2013-06-24 07:55:00,64.9,63.4,30.18,ENE,68,0.0,0.0,95,0.00,,,0.00,Wunderground v.1.15,2013-06-24 11:55:00,
2013-06-24 08:00:00,65.1,63.3,30.19,ENE,68,0.0,0.0,94,0.00,,,0.00,Wunderground v.1.15,2013-06-24 12:00:00,
2013-06-24 08:10:00,65.6,63.8,30.19,ENE,68,0.0,0.0,94,0.00,,,0.00,Wunderground v.1.15,2013-06-24 12:10:00,
2013-06-24 08:15:00,65.8,64.0,30.19,ENE,68,0.0,0.0,94,0.00,,,0.00,Wunderground v.1.15,2013-06-24 12:15:00,
2013-06-24 08:20:00,65.9,64.1,30.19,ENE,68,0.0,0.0,94,0.00,,,0.00,Wunderground v.1.15,2013-06-24 12:20:00,
2013-06-24 08:25:00,66.1,64.3,30.19,ENE,68,0.0,0.0,94,0.00,,,0.00,Wunderground v.1.15,2013-06-24 12:25:00,
2013-06-24 08:30:00,66.3,64.2,30.20,ENE,68,0.0,0.0,93,0.00,,,0.00,Wunderground v.1.15,2013-06-24 12:30:00,
2013-06-24 08:40:00,66.7,64.6,30.20,ENE,68,0.0,0.0,93,0.00,,,0.00,Wunderground v.1.15,2013-06-24 12:40:00,
2013-06-24 08:45:00,67.0,64.6,30.20,ENE,68,0.0,0.0,92,0.00,,,0.00,Wunderground v.1.15,2013-06-24 12:45:00,
2013-06-24 09:00:00,67.8,65.1,30.20,ENE,68,0.0,0.0,91,0.00,,,0.00,Wunderground v.1.15,2013-06-24 13:00:00,
2013-06-24 09:10:00,68.4,65.4,30.20,ENE,68,0.0,0.0,90,0.00,,,0.00,Wunderground v.1.15,2013-06-24 13:10:00,
2013-06-24 09:15:00,68.9,65.5,30.20,ENE,68,0.0,0.0,89,0.00,,,0.00,Wunderground v.1.15,2013-06-24 13:15:00,
2013-06-24 09:25:00,70.2,66.1,30.20,ENE,68,0.0,0.0,87,0.00,,,0.00,Wunderground v.1.15,2013-06-24 13:25:00,
2013-06-24 09:30:00,70.8,66.4,30.21,ENE,68,0.0,0.0,86,0.00,,,0.00,Wunderground v.1.15,2013-06-24 13:30:00,
2013-06-24 09:40:00,71.4,66.3,30.21,ENE,68,0.0,0.0,84,0.00,,,0.00,Wunderground v.1.15,2013-06-24 13:40:00,
2013-06-24 09:45:00,71.5,66.8,30.20,ENE,68,0.0,0.0,85,0.00,,,0.00,Wunderground v.1.15,2013-06-24 13:45:00,
2013-06-24 09:55:00,72.4,66.9,30.20,NW,305,0.0,0.0,83,0.00,,,0.00,Wunderground v.1.15,2013-06-24 13:55:00,
2013-06-24 10:05:00,73.1,66.9,30.20,NW,305,0.0,0.0,81,0.00,,,0.00,Wunderground v.1.15,2013-06-24 14:05:00,
2013-06-24 10:10:00,73.6,68.1,30.20,NW,305,0.0,0.0,83,0.00,,,0.00,Wunderground v.1.15,2013-06-24 14:10:00,
2013-06-24 10:15:00,74.1,67.5,30.20,WNW,300,0.0,2.0,80,0.00,,,0.00,Wunderground v.1.15,2013-06-24 14:15:00,
2013-06-24 10:20:00,74.7,68.5,30.20,WNW,300,0.0,0.0,81,0.00,,,0.00,Wunderground v.1.15,2013-06-24 14:20:00,
2013-06-24 10:25:00,75.5,68.9,30.21,WNW,300,0.0,0.0,80,0.00,,,0.00,Wunderground v.1.15,2013-06-24 14:25:00,
2013-06-24 10:30:00,75.9,67.8,30.21,NW,322,0.0,0.0,76,0.00,,,0.00,Wunderground v.1.15,2013-06-24 14:30:00,
2013-06-24 10:40:00,76.1,67.6,30.21,WNW,290,2.0,2.0,75,0.00,,,0.00,Wunderground v.1.15,2013-06-24 14:40:00,
2013-06-24 10:45:00,75.8,67.7,30.21,WNW,299,2.0,2.0,76,0.00,,,0.00,Wunderground v.1.15,2013-06-24 14:45:00,
2013-06-24 10:55:00,76.0,68.3,30.21,WNW,298,0.0,1.0,77,0.00,,,0.00,Wunderground v.1.15,2013-06-24 14:55:00,
2013-06-24 11:05:00,75.4,67.7,30.21,NW,313,1.0,1.0,77,0.00,,,0.00,Wunderground v.1.15,2013-06-24 15:05:00,
2013-06-24 11:10:00,75.2,68.2,30.21,NW,313,1.0,1.0,79,0.00,,,0.00,Wunderground v.1.15,2013-06-24 15:10:00,
2013-06-24 11:15:00,75.0,68.0,30.21,NW,313,0.0,1.0,79,0.00,,,0.00,Wunderground v.1.15,2013-06-24 15:15:00,
2013-06-24 11:25:00,75.1,68.5,30.21,NW,313,0.0,0.0,80,0.00,,,0.00,Wunderground v.1.15,2013-06-24 15:25:00,
2013-06-24 11:30:00,75.1,68.1,30.20,NW,313,0.0,0.0,79,0.00,,,0.00,Wunderground v.1.15,2013-06-24 15:30:00,
2013-06-24 11:40:00,76.1,68.0,30.20,NW,317,1.0,2.0,76,0.00,,,0.00,Wunderground v.1.15,2013-06-24 15:40:00,
2013-06-24 11:45:00,76.6,68.8,30.20,SE,142,1.0,2.0,77,0.00,,,0.00,Wunderground v.1.15,2013-06-24 15:45:00,
2013-06-24 11:55:00,77.8,69.6,30.19,SE,141,0.0,1.0,76,0.00,,,0.00,Wunderground v.1.15,2013-06-24 15:55:00,
2013-06-24 12:00:00,78.5,70.7,30.19,ENE,67,0.0,0.0,77,0.00,,,0.00,Wunderground v.1.15,2013-06-24 16:00:00,
2013-06-24 12:10:00,79.6,69.8,30.19,SE,125,0.0,2.0,72,0.00,,,0.00,Wunderground v.1.15,2013-06-24 16:10:00,
2013-06-24 12:15:00,79.2,69.4,30.19,SE,126,0.0,2.0,72,0.00,,,0.00,Wunderground v.1.15,2013-06-24 16:15:00,
2013-06-24 12:25:00,78.4,69.8,30.19,NNE,17,0.0,1.0,75,0.00,,,0.00,Wunderground v.1.15,2013-06-24 16:25:00,
2013-06-24 12:30:00,78.7,70.5,30.18,ESE,103,0.0,0.0,76,0.00,,,0.00,Wunderground v.1.15,2013-06-24 16:30:00,
2013-06-24 12:40:00,79.7,69.5,30.18,West,276,1.0,1.0,71,0.00,,,0.00,Wunderground v.1.15,2013-06-24 16:40:00,
2013-06-24 12:45:00,80.0,71.0,30.17,SW,223,1.0,1.0,74,0.00,,,0.00,Wunderground v.1.15,2013-06-24 16:45:00,
2013-06-24 12:50:00,79.3,70.7,30.17,SW,223,0.0,0.0,75,0.00,,,0.00,Wunderground v.1.15,2013-06-24 16:50:00,
2013-06-24 12:55:00,78.7,70.9,30.17,SW,223,0.0,0.0,77,0.00,,,0.00,Wunderground v.1.15,2013-06-24 16:55:00,
2013-06-24 13:15:00,79.0,71.6,30.16,NW,305,0.0,1.0,78,0.00,,,0.00,Wunderground v.1.15,2013-06-24 17:15:00,
2013-06-24 13:25:00,79.0,71.2,30.16,South,181,0.0,1.0,77,0.00,,,0.00,Wunderground v.1.15,2013-06-24 17:25:00,
2013-06-24 13:30:00,78.5,71.1,30.16,South,181,0.0,0.0,78,0.00,,,0.00,Wunderground v.1.15,2013-06-24 17:30:00,
2013-06-24 13:35:00,77.8,71.1,30.15,South,181,0.0,0.0,80,0.00,,,0.00,Wunderground v.1.15,2013-06-24 17:35:00,
2013-06-24 13:40:00,77.7,71.8,30.15,South,181,0.0,0.0,82,0.00,,,0.00,Wunderground v.1.15,2013-06-24 17:40:00,
2013-06-24 13:50:00,77.6,69.4,30.15,WNW,296,3.0,3.0,76,0.00,,,0.00,Wunderground v.1.15,2013-06-24 17:50:00,
2013-06-24 13:55:00,76.9,68.8,30.15,West,265,3.0,5.0,76,0.00,,,0.00,Wunderground v.1.15,2013-06-24 17:55:00,
2013-06-24 14:10:00,77.5,70.1,30.14,SW,218,1.0,1.0,78,0.00,,,0.00,Wunderground v.1.15,2013-06-24 18:10:00,
2013-06-24 14:15:00,78.3,68.5,30.14,WSW,239,0.0,1.0,72,0.00,,,0.00,Wunderground v.1.15,2013-06-24 18:15:00,
2013-06-24 14:20:00,79.4,69.2,30.13,NW,319,1.0,4.0,71,0.00,,,0.00,Wunderground v.1.15,2013-06-24 18:20:00,
2013-06-24 14:25:00,79.6,68.5,30.13,South,179,1.0,4.0,69,0.00,,,0.00,Wunderground v.1.15,2013-06-24 18:25:00,
2013-06-24 14:35:00,78.7,70.1,30.13,South,178,1.0,1.0,75,0.00,,,0.00,Wunderground v.1.15,2013-06-24 18:35:00,
2013-06-24 14:40:00,78.9,69.9,30.12,South,178,0.0,0.0,74,0.00,,,0.00,Wunderground v.1.15,2013-06-24 18:40:00,
2013-06-24 14:45:00,79.7,70.7,30.11,South,181,0.0,0.0,74,0.00,,,0.00,Wunderground v.1.15,2013-06-24 18:45:00,
2013-06-24 14:50:00,80.8,72.9,30.11,South,181,0.0,0.0,77,0.00,,,0.00,Wunderground v.1.15,2013-06-24 18:50:00,
2013-06-24 14:55:00,81.2,72.1,30.11,South,169,0.0,0.0,74,0.00,,,0.00,Wunderground v.1.15,2013-06-24 18:55:00,
2013-06-24 15:05:00,79.5,71.3,30.11,WSW,248,1.0,4.0,76,0.00,,,0.00,Wunderground v.1.15,2013-06-24 19:05:00,
2013-06-24 15:10:00,78.7,70.1,30.11,WSW,244,1.0,1.0,75,0.00,,,0.00,Wunderground v.1.15,2013-06-24 19:10:00,
2013-06-24 15:20:00,77.0,69.2,30.11,South,173,1.0,2.0,77,0.00,,,0.00,Wunderground v.1.15,2013-06-24 19:20:00,
2013-06-24 15:25:00,76.2,68.5,30.11,South,178,1.0,2.0,77,0.00,,,0.00,Wunderground v.1.15,2013-06-24 19:25:00,
2013-06-24 15:35:00,75.3,68.0,30.11,SE,136,1.0,2.0,78,0.00,,,0.00,Wunderground v.1.15,2013-06-24 19:35:00,
2013-06-24 15:40:00,75.4,68.1,30.11,SE,136,1.0,1.0,78,0.00,,,0.00,Wunderground v.1.15,2013-06-24 19:40:00,
2013-06-24 15:45:00,76.1,68.4,30.11,ESE,115,1.0,1.0,77,0.00,,,0.00,Wunderground v.1.15,2013-06-24 19:45:00,
2013-06-24 15:55:00,77.6,69.8,30.10,South,169,1.0,4.0,77,0.00,,,0.00,Wunderground v.1.15,2013-06-24 19:55:00,
2013-06-24 16:10:00,78.7,70.5,30.09,ESE,119,1.0,1.0,76,0.00,,,0.00,Wunderground v.1.15,2013-06-24 20:10:00,
2013-06-24 16:20:00,78.6,70.4,30.09,South,175,1.0,1.0,76,0.00,,,0.00,Wunderground v.1.15,2013-06-24 20:20:00,
2013-06-24 16:25:00,78.6,71.2,30.09,South,185,1.0,1.0,78,0.00,,,0.00,Wunderground v.1.15,2013-06-24 20:25:00,
2013-06-24 16:30:00,78.8,71.4,30.09,South,181,1.0,1.0,78,0.00,,,0.00,Wunderground v.1.15,2013-06-24 20:30:00,
2013-06-24 16:40:00,79.3,69.9,30.09,South,182,0.0,0.0,73,0.00,,,0.00,Wunderground v.1.15,2013-06-24 20:40:00,
2013-06-24 16:50:00,78.9,70.7,30.09,South,181,0.0,0.0,76,0.00,,,0.00,Wunderground v.1.15,2013-06-24 20:50:00,
2013-06-24 16:55:00,78.4,70.2,30.09,South,182,0.0,0.0,76,0.00,,,0.00,Wunderground v.1.15,2013-06-24 20:55:00,
2013-06-24 17:00:00,78.0,70.2,30.08,South,182,0.0,0.0,77,0.00,,,0.00,Wunderground v.1.15,2013-06-24 21:00:00,
2013-06-24 17:10:00,78.2,71.2,30.09,South,189,0.0,1.0,79,0.00,,,0.00,Wunderground v.1.15,2013-06-24 21:10:00,
2013-06-24 17:15:00,78.0,71.0,30.08,SSW,192,0.0,1.0,79,0.00,,,0.00,Wunderground v.1.15,2013-06-24 21:15:00,
2013-06-24 17:20:00,77.8,70.8,30.09,West,262,1.0,6.0,79,0.00,,,0.00,Wunderground v.1.15,2013-06-24 21:20:00,
2013-06-24 17:25:00,77.6,69.0,30.09,WNW,289,3.0,6.0,75,0.00,,,0.00,Wunderground v.1.15,2013-06-24 21:25:00,
2013-06-24 17:30:00,77.7,70.3,30.09,WSW,255,2.0,2.0,78,0.00,,,0.00,Wunderground v.1.15,2013-06-24 21:30:00,
2013-06-24 17:40:00,77.5,68.6,30.09,South,171,2.0,2.0,74,0.00,,,0.00,Wunderground v.1.15,2013-06-24 21:40:00,
2013-06-24 17:45:00,77.8,69.2,30.09,South,174,1.0,2.0,75,0.00,,,0.00,Wunderground v.1.15,2013-06-24 21:45:00,
2013-06-24 17:50:00,77.8,69.6,30.08,South,174,0.0,1.0,76,0.00,,,0.00,Wunderground v.1.15,2013-06-24 21:50:00,
2013-06-24 17:55:00,77.3,68.8,30.09,SE,137,1.0,1.0,75,0.00,,,0.00,Wunderground v.1.15,2013-06-24 21:55:00,
2013-06-24 18:00:00,76.9,68.4,30.09,SE,137,1.0,1.0,75,0.00,,,0.00,Wunderground v.1.15,2013-06-24 22:00:00,
2013-06-24 18:10:00,76.5,68.7,30.09,SE,137,0.0,0.0,77,0.00,,,0.00,Wunderground v.1.15,2013-06-24 22:10:00,
2013-06-24 18:15:00,76.4,68.7,30.09,SE,137,0.0,0.0,77,0.00,,,0.00,Wunderground v.1.15,2013-06-24 22:15:00,
2013-06-24 18:25:00,75.6,68.3,30.09,SE,136,0.0,0.0,78,0.00,,,0.00,Wunderground v.1.15,2013-06-24 22:25:00,
2013-06-24 18:40:00,74.5,67.9,30.09,SE,136,0.0,0.0,80,0.00,,,0.00,Wunderground v.1.15,2013-06-24 22:40:00,
2013-06-24 18:45:00,74.2,68.0,30.09,SE,136,0.0,0.0,81,0.00,,,0.00,Wunderground v.1.15,2013-06-24 22:45:00,
2013-06-24 18:55:00,73.8,68.3,30.09,SE,136,0.0,0.0,83,0.00,,,0.00,Wunderground v.1.15,2013-06-24 22:55:00,
2013-06-24 19:00:00,73.6,68.1,30.09,SE,136,0.0,0.0,83,0.00,,,0.00,Wunderground v.1.15,2013-06-24 23:00:00,
2013-06-24 19:05:00,73.5,68.4,30.09,SE,136,0.0,0.0,84,0.00,,,0.00,Wunderground v.1.15,2013-06-24 23:05:00,
2013-06-24 19:10:00,73.3,68.2,30.10,SE,136,0.0,0.0,84,0.00,,,0.00,Wunderground v.1.15,2013-06-24 23:10:00,
2013-06-24 19:15:00,73.1,68.0,30.09,SE,136,0.0,0.0,84,0.00,,,0.00,Wunderground v.1.15,2013-06-24 23:15:00,
2013-06-24 19:25:00,73.0,68.2,30.09,SE,136,0.0,0.0,85,0.00,,,0.00,Wunderground v.1.15,2013-06-24 23:25:00,
2013-06-24 19:40:00,72.9,68.5,30.08,SE,136,0.0,0.0,86,0.00,,,0.00,Wunderground v.1.15,2013-06-24 23:40:00,
2013-06-24 19:45:00,72.8,68.4,30.09,SE,136,0.0,0.0,86,0.00,,,0.00,Wunderground v.1.15,2013-06-24 23:45:00,
2013-06-24 19:50:00,72.7,68.3,30.09,SE,136,0.0,0.0,86,0.00,,,0.00,Wunderground v.1.15,2013-06-24 23:50:00,
2013-06-24 19:55:00,72.7,68.3,30.09,SE,136,0.0,0.0,86,0.00,,,0.00,Wunderground v.1.15,2013-06-24 23:55:00,
2013-06-24 20:00:00,72.8,68.4,30.09,SE,136,0.0,0.0,86,0.00,,,0.00,Wunderground v.1.15,2013-06-25 00:00:00,
2013-06-24 20:10:00,73.1,68.3,30.08,SE,136,0.0,0.0,85,0.00,,,0.00,Wunderground v.1.15,2013-06-25 00:10:00,
2013-06-24 20:15:00,73.1,68.3,30.08,SE,136,0.0,0.0,85,0.00,,,0.00,Wunderground v.1.15,2013-06-25 00:15:00,
2013-06-24 20:20:00,73.0,68.2,30.09,SE,136,0.0,0.0,85,0.00,,,0.00,Wunderground v.1.15,2013-06-25 00:20:00,
2013-06-24 20:25:00,73.0,68.2,30.09,SE,136,0.0,0.0,85,0.00,,,0.00,Wunderground v.1.15,2013-06-25 00:25:00,
2013-06-24 20:30:00,72.8,68.0,30.09,SE,136,0.0,0.0,85,0.00,,,0.00,Wunderground v.1.15,2013-06-25 00:30:00,
2013-06-24 20:40:00,72.3,67.9,30.09,SE,136,0.0,0.0,86,0.00,,,0.00,Wunderground v.1.15,2013-06-25 00:40:00,
2013-06-24 20:50:00,72.0,67.9,30.10,SE,136,0.0,0.0,87,0.00,,,0.00,Wunderground v.1.15,2013-06-25 00:50:00,
2013-06-24 20:55:00,71.7,67.6,30.10,SE,136,0.0,0.0,87,0.00,,,0.00,Wunderground v.1.15,2013-06-25 00:55:00,
2013-06-24 21:00:00,71.5,67.4,30.09,SE,136,0.0,0.0,87,0.00,,,0.00,Wunderground v.1.15,2013-06-25 01:00:00,
2013-06-24 21:10:00,70.8,67.1,30.09,SE,136,0.0,0.0,88,0.00,,,0.00,Wunderground v.1.15,2013-06-25 01:10:00,
2013-06-24 21:15:00,70.5,66.8,30.09,SE,136,0.0,0.0,88,0.00,,,0.00,Wunderground v.1.15,2013-06-25 01:15:00,
2013-06-24 21:20:00,70.2,66.8,30.09,SE,136,0.0,0.0,89,0.00,,,0.00,Wunderground v.1.15,2013-06-25 01:20:00,
2013-06-24 21:25:00,69.9,66.5,30.09,SE,136,0.0,0.0,89,0.00,,,0.00,Wunderground v.1.15,2013-06-25 01:25:00,
2013-06-24 21:40:00,69.1,66.0,30.10,SE,136,0.0,0.0,90,0.00,,,0.00,Wunderground v.1.15,2013-06-25 01:40:00,
2013-06-24 21:45:00,68.8,65.7,30.10,SE,136,0.0,0.0,90,0.00,,,0.00,Wunderground v.1.15,2013-06-25 01:45:00,
2013-06-24 21:55:00,68.4,65.4,30.11,SE,136,0.0,0.0,90,0.00,,,0.00,Wunderground v.1.15,2013-06-25 01:55:00,
2013-06-24 22:00:00,68.1,65.1,30.11,SE,136,0.0,0.0,90,0.00,,,0.00,Wunderground v.1.15,2013-06-25 02:00:00,
2013-06-24 22:10:00,67.7,65.0,30.11,SE,136,0.0,0.0,91,0.00,,,0.00,Wunderground v.1.15,2013-06-25 02:10:00,
2013-06-24 22:30:00,67.0,64.3,30.12,SE,136,0.0,0.0,91,0.00,,,0.00,Wunderground v.1.15,2013-06-25 02:30:00,
2013-06-24 22:40:00,66.6,64.2,30.13,SE,136,0.0,0.0,92,0.00,,,0.00,Wunderground v.1.15,2013-06-25 02:40:00,
2013-06-24 22:50:00,66.4,64.0,30.13,SE,136,0.0,0.0,92,0.00,,,0.00,Wunderground v.1.15,2013-06-25 02:50:00,
2013-06-24 22:55:00,66.2,63.8,30.13,SE,136,0.0,0.0,92,0.00,,,0.00,Wunderground v.1.15,2013-06-25 02:55:00,
2013-06-24 23:00:00,66.1,63.7,30.14,SE,136,0.0,0.0,92,0.00,,,0.00,Wunderground v.1.15,2013-06-25 03:00:00,
2013-06-24 23:20:00,65.6,63.2,30.14,SE,136,0.0,0.0,92,0.00,,,0.00,Wunderground v.1.15,2013-06-25 03:20:00,
2013-06-24 23:35:00,65.3,63.2,30.14,SE,136,0.0,0.0,93,0.00,,,0.00,Wunderground v.1.15,2013-06-25 03:35:00,
2013-06-24 23:40:00,65.2,63.1,30.14,SE,136,0.0,0.0,93,0.00,,,0.00,Wunderground v.1.15,2013-06-25 03:40:00,
2013-06-24 23:45:00,65.1,63.0,30.14,SE,136,0.0,0.0,93,0.00,,,0.00,Wunderground v.1.15,2013-06-25 03:45:00,
2013-06-24 23:50:00,65.1,63.0,30.14,SE,136,0.0,0.0,93,0.00,,,0.00,Wunderground v.1.15,2013-06-25 03:50:00,
2013-06-24 23:55:00,65.0,62.9,30.14,SE,136,0.0,0.0,93,0.00,,,0.00,Wunderground v.1.15,2013-06-25 03:55:00,